This demonstration page uses our WeatherBlox Daily Observations layout. Learn more.

Left ArrowRight Arrow

Hourly Observations for September 20, 2018

Temp ( °F °C ) Dew Point ( °F °C ) Humidity (%) Winds ( mph kmh ) Pressure ( in mb ) Visibility ( mi km ) Precip ( " mm )
12:53 am 00:53 Clear 70 21.1 68 20 93 93 Calm 30.01 1016 8 13 0.00 0.00
1:53 am 01:53 Clear 69 20.6 67 19.4 93 93 Calm 30.00 1016 9 14 0.00 0.00
2:53 am 02:53 Clear 69 20.6 68 20 96 96 Calm 30.01 1016 7 11 0.00 0.00
3:53 am 03:53 Clear 68 20 67 19.4 96 96 Calm 30.02 1017 7 11 0.00 0.00
4:53 am 04:53 Clear with Mist and Fog 68 20 66 18.9 93 93 Calm 30.03 1017 5 8 0.00 0.00
5:53 am 05:53 Clear 67 19.4 66 18.9 97 97 Calm 30.03 1017 7 11 0.00 0.00
6:53 am 06:53 Clear with Mist and Fog 67 19.4 66 18.9 97 97 Calm 30.04 1017 3 4 0.00 0.00
7:01 am 07:01 Clear with Mist and Fog 68 20 66 18.9 93 93 Calm 30.06 1018 4 6 0.00 0.00
7:26 am 07:26 Sunny with Mist and Fog 68 20 66 18.9 93 93 Calm 30.06 1018 3 4 0.00 0.00
7:33 am 07:33 Sunny with Mist and Fog 68 20 66 18.9 93 93 Calm 30.06 1018 3 5 0.00 0.00
7:53 am 07:53 Sunny with Mist and Fog 69 20.6 68 20 96 96 Calm 30.06 1018 3 5 0.00 0.00
8:53 am 08:53 Sunny with Mist and Fog 75 23.9 72 22.2 90 90 E 3 6 30.07 1018 6 10 0.00 0.00
9:53 am 09:53 Sunny with Light Rain 79 26.1 72 22.2 79 79 Calm 30.07 1018 10 16 0.00 0.03
10:53 am 10:53 Sunny 84 28.9 72 22.2 67 67 VRB 5 7 30.08 1019 10 16 0.00 0.03
11:53 am 11:53 Sunny 87 30.6 72 22.2 61 61 SW 7 11 30.07 1018 10 16 0.00 0.00
12:53 pm 12:53 Sunny 89 31.7 71 21.7 55 55 WSW 7 11 30.06 1018 10 16 0.00 0.00
1:53 pm 13:53 Sunny 91 32.8 72 22.2 54 54 VRB 7 11 30.04 1017 10 16 0.00 0.00
2:53 pm 14:53 Mostly Sunny 91 32.8 71 21.7 52 52 VRB 7 11 30.02 1017 10 16 0.00 0.00
3:53 pm 15:53 Sunny 91 32.8 70 21.1 50 50 SSW 8 13 30.01 1016 10 16 0.00 0.00
4:53 pm 16:53 Partly Cloudy 90 32.2 70 21.1 52 52 S 6 9 30.00 1016 10 16 0.00 0.00
5:53 pm 17:53 Sunny 87 30.6 71 21.7 59 59 VRB 5 7 29.99 1016 10 16 0.00 0.00
6:53 pm 18:53 Sunny 86 30 70 21.1 59 59 SSW 3 6 29.99 1016 10 16 0.00 0.00
7:53 pm 19:53 Clear 83 28.3 71 21.7 67 67 SSW 3 6 30.00 1016 10 16 0.00 0.00
8:53 pm 20:53 Clear 79 26.1 71 21.7 77 77 Calm 30.00 1016 10 16 0.00 0.00
9:53 pm 21:53 Clear 77 25 71 21.7 82 82 Calm 30.00 1016 10 16 0.00 0.00
10:53 pm 22:53 Clear 78 25.6 70 21.1 76 76 SSE 3 6 29.99 1016 10 16 0.00 0.00
11:53 pm 23:53 Clear 78 25.6 70 21.1 76 76 Calm 30.00 1016 10 16 0.00 0.00

Powered by AerisWeather